Location: Six Mile Lake
(44.9000°N, 79.7170°W)
Time: 18:04:36
(UTC-04:00)

AO-92 - Pass Details

Date: 09 July 2022
Orbit: 469 x 481 km, 97.4° (Epoch: 17 August)

Event Time Altitude Azimuth Distance (km) Brightness Sun altitude
Exits shadow 23:06:38 34° 139° (SE) 804 ? -15.9°
Maximum altitude 23:07:56 59° 75° (ENE) 562 ? -16.0°
Drops below altitude 10° 23:11:29 10° 355° (N) 1,674 ? -16.3°
Sets 23:13:35 0° 352° (N) 2,561 ? -16.5°
